owner,sensor,date,latitude,longitude,vertical_datum,sea_water_temperature,qcFlag
Chevron,ioos:station:wmo:42372:2,2023-04-01T00:05:00Z,27.7790,-90.5190,13.2,23.2,11111222
Chevron,ioos:station:wmo:42372:2,2023-04-01T00:15:00Z,27.7790,-90.5190,13.3,23.2,11111222
Chevron,ioos:station:wmo:42372:2,2023-04-01T00:25:00Z,27.7790,-90.5190,13.2,23.2,11111222
Chevron,ioos:station:wmo:42372:2,2023-04-01T00:35:00Z,27.7790,-90.5190,13.5,23.2,11111222
Chevron,ioos:station:wmo:42372:2,2023-04-01T00:45:00Z,27.7790,-90.5190,13.3,23.2,11111222
Chevron,ioos:station:wmo:42372:2,2023-04-01T00:55:00Z,27.7790,-90.5190,13.2,23.2,11111222
Chevron,ioos:station:wmo:42372:2,2023-04-01T01:05:00Z,27.7790,-90.5190,13.2,23.1,11111222
Chevron,ioos:station:wmo:42372:2,2023-04-01T01:15:00Z,27.7790,-90.5190,13.4,23.1,11111222
Chevron,ioos:station:wmo:42372:2,2023-04-01T01:25:00Z,27.7790,-90.5190,13.3,23.1,11111222
Chevron,ioos:station:wmo:42372:2,2023-04-01T01:35:00Z,27.7790,-90.5190,13.2,23.1,11111222
Chevron,ioos:station:wmo:42372:2,2023-04-01T01:45:00Z,27.7790,-90.5190,13.2,23.2,11111222
Chevron,ioos:station:wmo:42372:2,2023-04-01T01:55:00Z,27.7790,-90.5190,13.3,23.2,11111222
Chevron,ioos:station:wmo:42372:2,2023-04-01T02:05:00Z,27.7790,-90.5190,13.3,23.2,11111222
Chevron,ioos:station:wmo:42372:2,2023-04-01T02:15:00Z,27.7790,-90.5190,13.2,23.2,11111222
Chevron,ioos:station:wmo:42372:2,2023-04-01T02:25:00Z,27.7790,-90.5190,13.1,23.2,11111222
Chevron,ioos:station:wmo:42372:2,2023-04-01T02:35:00Z,27.7790,-90.5190,13.4,23.1,11111222
Chevron,ioos:station:wmo:42372:2,2023-04-01T02:45:00Z,27.7790,-90.5190,13.3,23.1,11111222
Chevron,ioos:station:wmo:42372:2,2023-04-01T02:55:00Z,27.7790,-90.5190,13.2,23.2,11111222
Chevron,ioos:station:wmo:42372:2,2023-04-01T03:05:00Z,27.7790,-90.5190,13.2,23.2,11111222
Chevron,ioos:station:wmo:42372:2,2023-04-01T03:15:00Z,27.7790,-90.5190,13.4,23.2,11111222
Chevron,ioos:station:wmo:42372:2,2023-04-01T03:25:00Z,27.7790,-90.5190,13.2,23.2,11111222
Chevron,ioos:station:wmo:42372:2,2023-04-01T03:35:00Z,27.7790,-90.5190,13.1,23.2,11111222
Chevron,ioos:station:wmo:42372:2,2023-04-01T03:45:00Z,27.7790,-90.5190,13.4,23.2,11111222
Chevron,ioos:station:wmo:42372:2,2023-04-01T03:55:00Z,27.7790,-90.5190,13.2,23.2,11111222
Chevron,ioos:station:wmo:42372:2,2023-04-01T04:05:00Z,27.7790,-90.5190,13.2,23.2,11111222
Chevron,ioos:station:wmo:42372:2,2023-04-01T04:15:00Z,27.7790,-90.5190,13.2,23.2,11111222
Chevron,ioos:station:wmo:42372:2,2023-04-01T04:25:00Z,27.7790,-90.5190,13.2,23.2,11111222
Chevron,ioos:station:wmo:42372:2,2023-04-01T04:35:00Z,27.7790,-90.5190,13.0,23.2,11111222
Chevron,ioos:station:wmo:42372:2,2023-04-01T04:45:00Z,27.7790,-90.5190,13.3,23.2,11111222
Chevron,ioos:station:wmo:42372:2,2023-04-01T04:55:00Z,27.7790,-90.5190,13.2,23.1,11111222
Chevron,ioos:station:wmo:42372:2,2023-04-01T05:05:00Z,27.7790,-90.5190,13.1,23.1,11111222
Chevron,ioos:station:wmo:42372:2,2023-04-01T05:15:00Z,27.7790,-90.5190,13.1,23.1,11111222
Chevron,ioos:station:wmo:42372:2,2023-04-01T05:25:00Z,27.7790,-90.5190,13.1,23.1,11111222
Chevron,ioos:station:wmo:42372:2,2023-04-01T05:35:00Z,27.7790,-90.5190,13.2,23.1,11111222
Chevron,ioos:station:wmo:42372:2,2023-04-01T05:45:00Z,27.7790,-90.5190,13.3,23.1,11111222
Chevron,ioos:station:wmo:42372:2,2023-04-01T05:55:00Z,27.7790,-90.5190,13.2,23.0,11111222
Chevron,ioos:station:wmo:42372:2,2023-04-01T06:05:00Z,27.7790,-90.5190,13.1,23.1,11111222
Chevron,ioos:station:wmo:42372:2,2023-04-01T06:15:00Z,27.7790,-90.5190,13.1,23.1,11111222
Chevron,ioos:station:wmo:42372:2,2023-04-01T06:25:00Z,27.7790,-90.5190,13.2,23.1,11111222
Chevron,ioos:station:wmo:42372:2,2023-04-01T06:35:00Z,27.7790,-90.5190,13.3,23.2,11111222
Chevron,ioos:station:wmo:42372:2,2023-04-01T06:45:00Z,27.7790,-90.5190,13.1,23.1,11111222
Chevron,ioos:station:wmo:42372:2,2023-04-01T06:55:00Z,27.7790,-90.5190,13.1,23.0,11111222
Chevron,ioos:station:wmo:42372:2,2023-04-01T07:05:00Z,27.7790,-90.5190,13.1,23.2,11111222
Chevron,ioos:station:wmo:42372:2,2023-04-01T07:15:00Z,27.7790,-90.5190,13.2,23.3,11111222
Chevron,ioos:station:wmo:42372:2,2023-04-01T07:25:00Z,27.7790,-90.5190,13.1,23.3,11111222
Chevron,ioos:station:wmo:42372:2,2023-04-01T07:35:00Z,27.7790,-90.5190,13.1,23.3,11111222
Chevron,ioos:station:wmo:42372:2,2023-04-01T07:45:00Z,27.7790,-90.5190,13.2,23.3,11111222
Chevron,ioos:station:wmo:42372:2,2023-04-01T07:55:00Z,27.7790,-90.5190,13.1,23.3,11111222
Chevron,ioos:station:wmo:42372:2,2023-04-01T08:05:00Z,27.7790,-90.5190,13.2,23.3,11111222
Chevron,ioos:station:wmo:42372:2,2023-04-01T08:15:00Z,27.7790,-90.5190,13.1,23.3,11111222
Chevron,ioos:station:wmo:42372:2,2023-04-01T08:25:00Z,27.7790,-90.5190,13.3,23.3,11111222
Chevron,ioos:station:wmo:42372:2,2023-04-01T08:35:00Z,27.7790,-90.5190,13.2,23.3,11111222
Chevron,ioos:station:wmo:42372:2,2023-04-01T08:45:00Z,27.7790,-90.5190,13.1,23.3,11111222
Chevron,ioos:station:wmo:42372:2,2023-04-01T08:55:00Z,27.7790,-90.5190,13.1,23.3,11111222
Chevron,ioos:station:wmo:42372:2,2023-04-01T09:05:00Z,27.7790,-90.5190,13.1,23.3,11111222
Chevron,ioos:station:wmo:42372:2,2023-04-01T09:15:00Z,27.7790,-90.5190,13.2,23.3,11111222
Chevron,ioos:station:wmo:42372:2,2023-04-01T09:25:00Z,27.7790,-90.5190,13.2,23.3,11111222
Chevron,ioos:station:wmo:42372:2,2023-04-01T09:35:00Z,27.7790,-90.5190,13.3,23.3,11111222
Chevron,ioos:station:wmo:42372:2,2023-04-01T09:45:00Z,27.7790,-90.5190,13.3,23.3,11111222
Chevron,ioos:station:wmo:42372:2,2023-04-01T09:55:00Z,27.7790,-90.5190,13.2,23.3,11111222
Chevron,ioos:station:wmo:42372:2,2023-04-01T10:05:00Z,27.7790,-90.5190,13.1,23.3,11111222
Chevron,ioos:station:wmo:42372:2,2023-04-01T10:15:00Z,27.7790,-90.5190,13.1,23.3,11111222
Chevron,ioos:station:wmo:42372:2,2023-04-01T10:25:00Z,27.7790,-90.5190,13.2,23.3,11111222
Chevron,ioos:station:wmo:42372:2,2023-04-01T10:35:00Z,27.7790,-90.5190,13.3,23.3,11111222
Chevron,ioos:station:wmo:42372:2,2023-04-01T10:45:00Z,27.7790,-90.5190,13.2,23.3,11111222
Chevron,ioos:station:wmo:42372:2,2023-04-01T10:55:00Z,27.7790,-90.5190,13.3,23.3,11111222
Chevron,ioos:station:wmo:42372:2,2023-04-01T11:05:00Z,27.7790,-90.5190,13.1,23.3,11111222
Chevron,ioos:station:wmo:42372:2,2023-04-01T11:15:00Z,27.7790,-90.5190,13.2,23.3,11111222
Chevron,ioos:station:wmo:42372:2,2023-04-01T11:25:00Z,27.7790,-90.5190,13.2,23.3,11111222
Chevron,ioos:station:wmo:42372:2,2023-04-01T11:36:00Z,27.7790,-90.5190,13.2,23.3,11111222
Chevron,ioos:station:wmo:42372:2,2023-04-01T11:46:00Z,27.7790,-90.5190,13.2,23.3,11111222
Chevron,ioos:station:wmo:42372:2,2023-04-01T11:56:00Z,27.7790,-90.5190,13.1,23.3,11111222
Chevron,ioos:station:wmo:42372:2,2023-04-01T12:06:00Z,27.7790,-90.5190,13.2,23.3,11111222
Chevron,ioos:station:wmo:42372:2,2023-04-01T12:16:00Z,27.7790,-90.5190,13.2,23.4,11111222
Chevron,ioos:station:wmo:42372:2,2023-04-01T12:26:00Z,27.7790,-90.5190,13.3,23.4,11111222
Chevron,ioos:station:wmo:42372:2,2023-04-01T12:36:00Z,27.7790,-90.5190,13.3,23.4,11111222
Chevron,ioos:station:wmo:42372:2,2023-04-01T12:46:00Z,27.7790,-90.5190,13.3,23.4,11111222
Chevron,ioos:station:wmo:42372:2,2023-04-01T12:56:00Z,27.7790,-90.5190,13.3,23.4,11111222
Chevron,ioos:station:wmo:42372:2,2023-04-01T13:06:00Z,27.7790,-90.5190,13.2,23.4,11111222
Chevron,ioos:station:wmo:42372:2,2023-04-01T13:16:00Z,27.7790,-90.5190,13.2,23.4,11111222
Chevron,ioos:station:wmo:42372:2,2023-04-01T13:26:00Z,27.7790,-90.5190,13.3,23.4,11111222
Chevron,ioos:station:wmo:42372:2,2023-04-01T13:36:00Z,27.7790,-90.5190,13.3,23.4,11111222
Chevron,ioos:station:wmo:42372:2,2023-04-01T13:46:00Z,27.7790,-90.5190,13.3,23.4,11111222
Chevron,ioos:station:wmo:42372:2,2023-04-01T13:56:00Z,27.7790,-90.5190,13.2,23.4,11111222
Chevron,ioos:station:wmo:42372:2,2023-04-01T14:06:00Z,27.7790,-90.5190,13.3,23.4,11111222
Chevron,ioos:station:wmo:42372:2,2023-04-01T14:16:00Z,27.7790,-90.5190,13.2,23.4,11111222
Chevron,ioos:station:wmo:42372:2,2023-04-01T14:26:00Z,27.7790,-90.5190,13.2,23.4,11111222
Chevron,ioos:station:wmo:42372:2,2023-04-01T14:36:00Z,27.7790,-90.5190,13.2,23.5,11111222
Chevron,ioos:station:wmo:42372:2,2023-04-01T14:46:00Z,27.7790,-90.5190,13.3,23.5,11111222
Chevron,ioos:station:wmo:42372:2,2023-04-01T14:56:00Z,27.7790,-90.5190,13.2,23.5,11111222
Chevron,ioos:station:wmo:42372:2,2023-04-01T15:06:00Z,27.7790,-90.5190,13.3,23.5,11111222
Chevron,ioos:station:wmo:42372:2,2023-04-01T15:16:00Z,27.7790,-90.5190,13.4,23.5,11111222
Chevron,ioos:station:wmo:42372:2,2023-04-01T15:26:00Z,27.7790,-90.5190,13.3,23.5,11111222
Chevron,ioos:station:wmo:42372:2,2023-04-01T15:36:00Z,27.7790,-90.5190,13.2,23.5,11111222
Chevron,ioos:station:wmo:42372:2,2023-04-01T15:46:00Z,27.7790,-90.5190,13.3,23.5,11111222
Chevron,ioos:station:wmo:42372:2,2023-04-01T15:56:00Z,27.7790,-90.5190,13.3,23.5,11111222
Chevron,ioos:station:wmo:42372:2,2023-04-01T16:06:00Z,27.7790,-90.5190,13.3,23.5,11111222
Chevron,ioos:station:wmo:42372:2,2023-04-01T16:16:00Z,27.7790,-90.5190,13.3,23.5,11111222
Chevron,ioos:station:wmo:42372:2,2023-04-01T16:26:00Z,27.7790,-90.5190,13.3,23.6,11111222
Chevron,ioos:station:wmo:42372:2,2023-04-01T16:36:00Z,27.7790,-90.5190,13.3,23.6,11111222
Chevron,ioos:station:wmo:42372:2,2023-04-01T16:46:00Z,27.7790,-90.5190,13.3,23.6,11111222
Chevron,ioos:station:wmo:42372:2,2023-04-01T16:56:00Z,27.7790,-90.5190,13.4,23.6,11111222
Chevron,ioos:station:wmo:42372:2,2023-04-01T17:06:00Z,27.7790,-90.5190,13.3,23.6,11111222
Chevron,ioos:station:wmo:42372:2,2023-04-01T17:16:00Z,27.7790,-90.5190,13.1,23.6,11111222
Chevron,ioos:station:wmo:42372:2,2023-04-01T17:26:00Z,27.7790,-90.5190,13.3,23.6,11111222
Chevron,ioos:station:wmo:42372:2,2023-04-01T17:36:00Z,27.7790,-90.5190,13.2,23.6,11111222
Chevron,ioos:station:wmo:42372:2,2023-04-01T17:46:00Z,27.7790,-90.5190,13.3,23.6,11111222
Chevron,ioos:station:wmo:42372:2,2023-04-01T17:56:00Z,27.7790,-90.5190,13.3,23.5,11111222
Chevron,ioos:station:wmo:42372:2,2023-04-01T18:06:00Z,27.7790,-90.5190,13.3,23.5,11111222
Chevron,ioos:station:wmo:42372:2,2023-04-01T18:16:00Z,27.7790,-90.5190,13.2,23.6,11111222
Chevron,ioos:station:wmo:42372:2,2023-04-01T18:26:00Z,27.7790,-90.5190,13.2,23.6,11111222
Chevron,ioos:station:wmo:42372:2,2023-04-01T18:36:00Z,27.7790,-90.5190,13.4,23.6,11111222
Chevron,ioos:station:wmo:42372:2,2023-04-01T18:46:00Z,27.7790,-90.5190,13.3,23.6,11111222
Chevron,ioos:station:wmo:42372:2,2023-04-01T18:56:00Z,27.7790,-90.5190,13.4,23.5,11111222
Chevron,ioos:station:wmo:42372:2,2023-04-01T19:06:00Z,27.7790,-90.5190,13.2,23.5,11111222
Chevron,ioos:station:wmo:42372:2,2023-04-01T19:16:00Z,27.7790,-90.5190,13.2,23.5,11111222
Chevron,ioos:station:wmo:42372:2,2023-04-01T19:26:00Z,27.7790,-90.5190,13.2,23.5,11111222
Chevron,ioos:station:wmo:42372:2,2023-04-01T19:36:00Z,27.7790,-90.5190,13.3,23.5,11111222
Chevron,ioos:station:wmo:42372:2,2023-04-01T19:46:00Z,27.7790,-90.5190,13.2,23.5,11111222
Chevron,ioos:station:wmo:42372:2,2023-04-01T19:56:00Z,27.7790,-90.5190,13.3,23.6,11111222
Chevron,ioos:station:wmo:42372:2,2023-04-01T20:06:00Z,27.7790,-90.5190,13.3,23.6,11111222
Chevron,ioos:station:wmo:42372:2,2023-04-01T20:16:00Z,27.7790,-90.5190,13.2,23.6,11111222
Chevron,ioos:station:wmo:42372:2,2023-04-01T20:26:00Z,27.7790,-90.5190,13.3,23.5,11111222
Chevron,ioos:station:wmo:42372:2,2023-04-01T20:36:00Z,27.7790,-90.5190,13.2,23.6,11111222
Chevron,ioos:station:wmo:42372:2,2023-04-01T20:46:00Z,27.7790,-90.5190,13.1,23.5,11111222
Chevron,ioos:station:wmo:42372:2,2023-04-01T20:56:00Z,27.7790,-90.5190,13.4,23.5,11111222
Chevron,ioos:station:wmo:42372:2,2023-04-01T21:06:00Z,27.7790,-90.5190,13.2,23.6,11111222
Chevron,ioos:station:wmo:42372:2,2023-04-01T21:16:00Z,27.7790,-90.5190,13.4,23.5,11111222
Chevron,ioos:station:wmo:42372:2,2023-04-01T21:26:00Z,27.7790,-90.5190,13.3,23.5,11111222
Chevron,ioos:station:wmo:42372:2,2023-04-01T21:36:00Z,27.7790,-90.5190,13.3,23.4,11111222
Chevron,ioos:station:wmo:42372:2,2023-04-01T21:46:00Z,27.7790,-90.5190,13.4,23.4,11111222
Chevron,ioos:station:wmo:42372:2,2023-04-01T21:56:00Z,27.7790,-90.5190,13.4,23.4,11111222
Chevron,ioos:station:wmo:42372:2,2023-04-01T22:06:00Z,27.7790,-90.5190,13.2,23.5,11111222
Chevron,ioos:station:wmo:42372:2,2023-04-01T22:16:00Z,27.7790,-90.5190,13.3,23.4,11111222
Chevron,ioos:station:wmo:42372:2,2023-04-01T22:26:00Z,27.7790,-90.5190,13.3,23.5,11111222
Chevron,ioos:station:wmo:42372:2,2023-04-01T22:36:00Z,27.7790,-90.5190,13.2,23.5,11111222
Chevron,ioos:station:wmo:42372:2,2023-04-01T22:46:00Z,27.7790,-90.5190,13.3,23.5,11111222
Chevron,ioos:station:wmo:42372:2,2023-04-01T22:56:00Z,27.7790,-90.5190,13.2,23.5,11111222
Chevron,ioos:station:wmo:42372:2,2023-04-01T23:06:00Z,27.7790,-90.5190,13.2,23.5,11111222
Chevron,ioos:station:wmo:42372:2,2023-04-01T23:16:00Z,27.7790,-90.5190,13.3,23.5,11111222
Chevron,ioos:station:wmo:42372:2,2023-04-01T23:26:00Z,27.7790,-90.5190,13.3,23.5,11111222
Chevron,ioos:station:wmo:42372:2,2023-04-01T23:36:00Z,27.7790,-90.5190,13.2,23.4,11111222
Chevron,ioos:station:wmo:42372:2,2023-04-01T23:46:00Z,27.7790,-90.5190,13.4,23.4,11111222
Chevron,ioos:station:wmo:42372:2,2023-04-01T23:56:00Z,27.7790,-90.5190,13.2,23.3,11111222
Chevron,ioos:station:wmo:42372:2,2023-04-02T00:06:00Z,27.7790,-90.5190,13.2,23.2,11111222
Chevron,ioos:station:wmo:42372:2,2023-04-02T00:16:00Z,27.7790,-90.5190,13.4,23.1,11111222
Chevron,ioos:station:wmo:42372:2,2023-04-02T00:26:00Z,27.7790,-90.5190,13.2,23.1,11111222
Chevron,ioos:station:wmo:42372:2,2023-04-02T00:36:00Z,27.7790,-90.5190,13.3,23.1,11111222
Chevron,ioos:station:wmo:42372:2,2023-04-02T00:46:00Z,27.7790,-90.5190,13.2,23.1,11111222
Chevron,ioos:station:wmo:42372:2,2023-04-02T00:56:00Z,27.7790,-90.5190,13.2,23.0,11111222
Chevron,ioos:station:wmo:42372:2,2023-04-02T01:06:00Z,27.7790,-90.5190,13.2,23.0,11111222
Chevron,ioos:station:wmo:42372:2,2023-04-02T01:16:00Z,27.7790,-90.5190,13.4,23.0,11111222
Chevron,ioos:station:wmo:42372:2,2023-04-02T01:26:00Z,27.7790,-90.5190,13.2,22.9,11111222
Chevron,ioos:station:wmo:42372:2,2023-04-02T01:36:00Z,27.7790,-90.5190,13.3,22.9,11111222
Chevron,ioos:station:wmo:42372:2,2023-04-02T01:46:00Z,27.7790,-90.5190,13.3,22.9,11111222
Chevron,ioos:station:wmo:42372:2,2023-04-02T01:56:00Z,27.7790,-90.5190,13.2,22.9,11111222
Chevron,ioos:station:wmo:42372:2,2023-04-02T02:06:00Z,27.7790,-90.5190,13.2,22.9,11111222
Chevron,ioos:station:wmo:42372:2,2023-04-02T02:16:00Z,27.7790,-90.5190,13.3,22.9,11111222
Chevron,ioos:station:wmo:42372:2,2023-04-02T02:26:00Z,27.7790,-90.5190,13.3,23.0,11111222
Chevron,ioos:station:wmo:42372:2,2023-04-02T02:36:00Z,27.7790,-90.5190,13.1,23.0,11111222
Chevron,ioos:station:wmo:42372:2,2023-04-02T02:46:00Z,27.7790,-90.5190,13.2,22.9,11111222
Chevron,ioos:station:wmo:42372:2,2023-04-02T02:56:00Z,27.7790,-90.5190,13.2,22.9,11111222
Chevron,ioos:station:wmo:42372:2,2023-04-02T03:06:00Z,27.7790,-90.5190,13.2,22.9,11111222
Chevron,ioos:station:wmo:42372:2,2023-04-02T03:16:00Z,27.7790,-90.5190,13.3,23.0,11111222
Chevron,ioos:station:wmo:42372:2,2023-04-02T03:26:00Z,27.7790,-90.5190,13.3,23.0,11111222
Chevron,ioos:station:wmo:42372:2,2023-04-02T03:36:00Z,27.7790,-90.5190,13.3,23.0,11111222
Chevron,ioos:station:wmo:42372:2,2023-04-02T03:46:00Z,27.7790,-90.5190,13.3,23.0,11111222
Chevron,ioos:station:wmo:42372:2,2023-04-02T03:56:00Z,27.7790,-90.5190,13.3,23.1,11111222
Chevron,ioos:station:wmo:42372:2,2023-04-02T04:06:00Z,27.7790,-90.5190,13.3,23.1,11111222
Chevron,ioos:station:wmo:42372:2,2023-04-02T04:16:00Z,27.7790,-90.5190,13.2,23.0,11111222
Chevron,ioos:station:wmo:42372:2,2023-04-02T04:26:00Z,27.7790,-90.5190,13.2,23.1,11111222
Chevron,ioos:station:wmo:42372:2,2023-04-02T04:36:00Z,27.7790,-90.5190,13.2,23.1,11111222
Chevron,ioos:station:wmo:42372:2,2023-04-02T04:46:00Z,27.7790,-90.5190,13.1,23.1,11111222
Chevron,ioos:station:wmo:42372:2,2023-04-02T04:56:00Z,27.7790,-90.5190,13.2,23.1,11111222
Chevron,ioos:station:wmo:42372:2,2023-04-02T05:06:00Z,27.7790,-90.5190,13.1,23.1,11111222
Chevron,ioos:station:wmo:42372:2,2023-04-02T05:16:00Z,27.7790,-90.5190,13.2,23.0,11111222
Chevron,ioos:station:wmo:42372:2,2023-04-02T05:26:00Z,27.7790,-90.5190,13.2,23.1,11111222
Chevron,ioos:station:wmo:42372:2,2023-04-02T05:36:00Z,27.7790,-90.5190,13.3,23.1,11111222
Chevron,ioos:station:wmo:42372:2,2023-04-02T05:46:00Z,27.7790,-90.5190,13.2,23.0,11111222
Chevron,ioos:station:wmo:42372:2,2023-04-02T05:56:00Z,27.7790,-90.5190,13.1,23.0,11111222
Chevron,ioos:station:wmo:42372:2,2023-04-02T06:06:00Z,27.7790,-90.5190,13.2,23.0,11111222
Chevron,ioos:station:wmo:42372:2,2023-04-02T06:16:00Z,27.7790,-90.5190,13.2,23.0,11111222
Chevron,ioos:station:wmo:42372:2,2023-04-02T06:26:00Z,27.7790,-90.5190,13.1,23.0,11111222
Chevron,ioos:station:wmo:42372:2,2023-04-02T06:36:00Z,27.7790,-90.5190,13.2,23.0,11111222
Chevron,ioos:station:wmo:42372:2,2023-04-02T06:46:00Z,27.7790,-90.5190,13.2,23.0,11111222
Chevron,ioos:station:wmo:42372:2,2023-04-02T06:56:00Z,27.7790,-90.5190,13.4,23.0,11111222
Chevron,ioos:station:wmo:42372:2,2023-04-02T07:06:00Z,27.7790,-90.5190,13.2,23.0,11111222
Chevron,ioos:station:wmo:42372:2,2023-04-02T07:16:00Z,27.7790,-90.5190,13.3,23.0,11111222
Chevron,ioos:station:wmo:42372:2,2023-04-02T07:26:00Z,27.7790,-90.5190,13.2,23.1,11111222
Chevron,ioos:station:wmo:42372:2,2023-04-02T07:36:00Z,27.7790,-90.5190,13.1,23.1,11111222
Chevron,ioos:station:wmo:42372:2,2023-04-02T07:46:00Z,27.7790,-90.5190,13.3,23.1,11111222
Chevron,ioos:station:wmo:42372:2,2023-04-02T07:56:00Z,27.7790,-90.5190,13.3,23.1,11111222
Chevron,ioos:station:wmo:42372:2,2023-04-02T08:06:00Z,27.7790,-90.5190,13.2,23.1,11111222
Chevron,ioos:station:wmo:42372:2,2023-04-02T08:16:00Z,27.7790,-90.5190,13.2,23.1,11111222
Chevron,ioos:station:wmo:42372:2,2023-04-02T08:26:00Z,27.7790,-90.5190,13.4,23.1,11111222
Chevron,ioos:station:wmo:42372:2,2023-04-02T08:36:00Z,27.7790,-90.5190,13.1,23.1,11111222
Chevron,ioos:station:wmo:42372:2,2023-04-02T08:46:00Z,27.7790,-90.5190,13.2,23.0,11111222
Chevron,ioos:station:wmo:42372:2,2023-04-02T08:56:00Z,27.7790,-90.5190,13.3,23.1,11111222
Chevron,ioos:station:wmo:42372:2,2023-04-02T09:06:00Z,27.7790,-90.5190,13.4,23.1,11111222
Chevron,ioos:station:wmo:42372:2,2023-04-02T09:16:00Z,27.7790,-90.5190,13.2,23.1,11111222
Chevron,ioos:station:wmo:42372:2,2023-04-02T09:26:00Z,27.7790,-90.5190,13.3,23.1,11111222
Chevron,ioos:station:wmo:42372:2,2023-04-02T09:36:00Z,27.7790,-90.5190,13.3,23.1,11111222
Chevron,ioos:station:wmo:42372:2,2023-04-02T09:46:00Z,27.7790,-90.5190,13.3,23.1,11111222
Chevron,ioos:station:wmo:42372:2,2023-04-02T09:56:00Z,27.7790,-90.5190,13.2,23.1,11111222
Chevron,ioos:station:wmo:42372:2,2023-04-02T10:06:00Z,27.7790,-90.5190,13.2,23.1,11111222
Chevron,ioos:station:wmo:42372:2,2023-04-02T10:16:00Z,27.7790,-90.5190,13.2,23.2,11111222
Chevron,ioos:station:wmo:42372:2,2023-04-02T10:26:00Z,27.7790,-90.5190,13.3,23.2,11111222
Chevron,ioos:station:wmo:42372:2,2023-04-02T10:36:00Z,27.7790,-90.5190,13.2,23.2,11111222
Chevron,ioos:station:wmo:42372:2,2023-04-02T10:46:00Z,27.7790,-90.5190,13.3,23.1,11111222
Chevron,ioos:station:wmo:42372:2,2023-04-02T10:56:00Z,27.7790,-90.5190,13.2,23.2,11111222
Chevron,ioos:station:wmo:42372:2,2023-04-02T11:06:00Z,27.7790,-90.5190,13.3,23.2,11111222
Chevron,ioos:station:wmo:42372:2,2023-04-02T11:16:00Z,27.7790,-90.5190,13.3,23.2,11111222
Chevron,ioos:station:wmo:42372:2,2023-04-02T11:26:00Z,27.7790,-90.5190,13.3,23.1,11111222
Chevron,ioos:station:wmo:42372:2,2023-04-02T11:36:00Z,27.7790,-90.5190,13.3,23.0,11111222
Chevron,ioos:station:wmo:42372:2,2023-04-02T11:46:00Z,27.7790,-90.5190,13.3,23.0,11111222
Chevron,ioos:station:wmo:42372:2,2023-04-02T11:56:00Z,27.7790,-90.5190,13.2,23.0,11111222
Chevron,ioos:station:wmo:42372:2,2023-04-02T12:06:00Z,27.7790,-90.5190,13.3,23.0,11111222
Chevron,ioos:station:wmo:42372:2,2023-04-02T12:16:00Z,27.7790,-90.5190,13.3,23.0,11111222
Chevron,ioos:station:wmo:42372:2,2023-04-02T12:26:00Z,27.7790,-90.5190,13.4,23.0,11111222
Chevron,ioos:station:wmo:42372:2,2023-04-02T12:36:00Z,27.7790,-90.5190,13.2,23.0,11111222
Chevron,ioos:station:wmo:42372:2,2023-04-02T12:46:00Z,27.7790,-90.5190,13.3,23.0,11111222
Chevron,ioos:station:wmo:42372:2,2023-04-02T12:56:00Z,27.7790,-90.5190,13.3,23.0,11111222
Chevron,ioos:station:wmo:42372:2,2023-04-02T13:06:00Z,27.7790,-90.5190,13.2,23.0,11111222
Chevron,ioos:station:wmo:42372:2,2023-04-02T13:16:00Z,27.7790,-90.5190,13.3,23.0,11111222
Chevron,ioos:station:wmo:42372:2,2023-04-02T13:26:00Z,27.7790,-90.5190,13.3,23.0,11111222
Chevron,ioos:station:wmo:42372:2,2023-04-02T13:36:00Z,27.7790,-90.5190,13.1,23.0,11111222
Chevron,ioos:station:wmo:42372:2,2023-04-02T13:46:00Z,27.7790,-90.5190,13.1,23.0,11111222
Chevron,ioos:station:wmo:42372:2,2023-04-02T13:56:00Z,27.7790,-90.5190,13.3,23.0,11111222
Chevron,ioos:station:wmo:42372:2,2023-04-02T14:06:00Z,27.7790,-90.5190,13.3,23.0,11111222
Chevron,ioos:station:wmo:42372:2,2023-04-02T14:16:00Z,27.7790,-90.5190,13.3,23.0,11111222
Chevron,ioos:station:wmo:42372:2,2023-04-02T14:26:00Z,27.7790,-90.5190,13.4,23.0,11111222
Chevron,ioos:station:wmo:42372:2,2023-04-02T14:36:00Z,27.7790,-90.5190,13.4,23.1,11111222
Chevron,ioos:station:wmo:42372:2,2023-04-02T14:46:00Z,27.7790,-90.5190,13.3,23.1,11111222
Chevron,ioos:station:wmo:42372:2,2023-04-02T14:56:00Z,27.7790,-90.5190,13.3,23.0,11111222
Chevron,ioos:station:wmo:42372:2,2023-04-02T15:06:00Z,27.7790,-90.5190,13.3,23.1,11111222
Chevron,ioos:station:wmo:42372:2,2023-04-02T15:16:00Z,27.7790,-90.5190,13.4,23.1,11111222
Chevron,ioos:station:wmo:42372:2,2023-04-02T15:26:00Z,27.7790,-90.5190,13.2,23.1,11111222
Chevron,ioos:station:wmo:42372:2,2023-04-02T15:36:00Z,27.7790,-90.5190,13.4,23.2,11111222
Chevron,ioos:station:wmo:42372:2,2023-04-02T15:46:00Z,27.7790,-90.5190,13.3,23.2,11111222
Chevron,ioos:station:wmo:42372:2,2023-04-02T15:56:00Z,27.7790,-90.5190,13.3,23.2,11111222
Chevron,ioos:station:wmo:42372:2,2023-04-02T16:06:00Z,27.7790,-90.5190,13.4,23.1,11111222
Chevron,ioos:station:wmo:42372:2,2023-04-02T16:16:00Z,27.7790,-90.5190,13.5,23.1,11111222
Chevron,ioos:station:wmo:42372:2,2023-04-02T16:26:00Z,27.7790,-90.5190,13.3,23.1,11111222
Chevron,ioos:station:wmo:42372:2,2023-04-02T16:36:00Z,27.7790,-90.5190,13.3,23.1,11111222
Chevron,ioos:station:wmo:42372:2,2023-04-02T16:46:00Z,27.7790,-90.5190,13.4,23.1,11111222
Chevron,ioos:station:wmo:42372:2,2023-04-02T16:56:00Z,27.7790,-90.5190,13.3,23.1,11111222
Chevron,ioos:station:wmo:42372:2,2023-04-02T17:06:00Z,27.7790,-90.5190,13.2,23.0,11111222
Chevron,ioos:station:wmo:42372:2,2023-04-02T17:16:00Z,27.7790,-90.5190,13.2,23.0,11111222
Chevron,ioos:station:wmo:42372:2,2023-04-02T17:26:00Z,27.7790,-90.5190,13.1,23.0,11111222
Chevron,ioos:station:wmo:42372:2,2023-04-02T17:36:00Z,27.7790,-90.5190,13.3,23.0,11111222
Chevron,ioos:station:wmo:42372:2,2023-04-02T17:46:00Z,27.7790,-90.5190,13.3,23.0,11111222
Chevron,ioos:station:wmo:42372:2,2023-04-02T17:56:00Z,27.7790,-90.5190,13.2,23.0,11111222
Chevron,ioos:station:wmo:42372:2,2023-04-02T18:06:00Z,27.7790,-90.5190,13.3,23.0,11111222
Chevron,ioos:station:wmo:42372:2,2023-04-02T18:16:00Z,27.7790,-90.5190,13.2,22.9,11111222
Chevron,ioos:station:wmo:42372:2,2023-04-02T18:26:00Z,27.7790,-90.5190,13.3,23.0,11111222
Chevron,ioos:station:wmo:42372:2,2023-04-02T18:36:00Z,27.7790,-90.5190,13.4,23.0,11111222
Chevron,ioos:station:wmo:42372:2,2023-04-02T18:46:00Z,27.7790,-90.5190,13.4,23.0,11111222
Chevron,ioos:station:wmo:42372:2,2023-04-02T18:56:00Z,27.7790,-90.5190,13.2,23.1,11111222
Chevron,ioos:station:wmo:42372:2,2023-04-02T19:06:00Z,27.7790,-90.5190,13.4,23.0,11111222
Chevron,ioos:station:wmo:42372:2,2023-04-02T19:16:00Z,27.7790,-90.5190,13.4,23.0,11111222
Chevron,ioos:station:wmo:42372:2,2023-04-02T19:26:00Z,27.7790,-90.5190,13.4,23.1,11111222
Chevron,ioos:station:wmo:42372:2,2023-04-02T19:36:00Z,27.7790,-90.5190,13.3,23.1,11111222